HVDC transfer

From www.emi.ea.govt.nz provided by the Electricity Authority (New Zealand)
Run at: 20240502110004

Parameters
Date range,10 May 2020 - 06 Jun 2020
Time scale,Trading period
Show,Average flow (MW)

Period start,Period end,Trading period,Direction,Energy transfer (GWh),Peak flow (MW),Average flow (MW)
10/05/2020 00:00:00,10/05/2020 00:30:00,1,Northward at Haywards,0.217,433,433
10/05/2020 00:30:00,10/05/2020 01:00:00,2,Northward at Haywards,0.204,408,408
10/05/2020 01:00:00,10/05/2020 01:30:00,3,Northward at Haywards,0.187,374,374
10/05/2020 01:30:00,10/05/2020 02:00:00,4,Northward at Haywards,0.166,331,331
10/05/2020 02:00:00,10/05/2020 02:30:00,5,Northward at Haywards,0.157,314,314
10/05/2020 02:30:00,10/05/2020 03:00:00,6,Northward at Haywards,0.152,304,304
10/05/2020 03:00:00,10/05/2020 03:30:00,7,Northward at Haywards,0.155,310,310
10/05/2020 03:30:00,10/05/2020 04:00:00,8,Northward at Haywards,0.156,311,311
10/05/2020 04:00:00,10/05/2020 04:30:00,9,Northward at Haywards,0.159,317,317
10/05/2020 04:30:00,10/05/2020 05:00:00,10,Northward at Haywards,0.158,315,315
10/05/2020 05:00:00,10/05/2020 05:30:00,11,Northward at Haywards,0.156,312,312
10/05/2020 05:30:00,10/05/2020 06:00:00,12,Northward at Haywards,0.171,341,341
10/05/2020 06:00:00,10/05/2020 06:30:00,13,Northward at Haywards,0.196,392,392
10/05/2020 06:30:00,10/05/2020 07:00:00,14,Northward at Haywards,0.223,446,446
10/05/2020 07:00:00,10/05/2020 07:30:00,15,Northward at Haywards,0.268,535,535
10/05/2020 07:30:00,10/05/2020 08:00:00,16,Northward at Haywards,0.260,520,520
10/05/2020 08:00:00,10/05/2020 08:30:00,17,Northward at Haywards,0.321,641,641
10/05/2020 08:30:00,10/05/2020 09:00:00,18,Northward at Haywards,0.346,692,692
10/05/2020 09:00:00,10/05/2020 09:30:00,19,Northward at Haywards,0.374,748,748
10/05/2020 09:30:00,10/05/2020 10:00:00,20,Northward at Haywards,0.370,739,739
10/05/2020 10:00:00,10/05/2020 10:30:00,21,Northward at Haywards,0.360,720,720
10/05/2020 10:30:00,10/05/2020 11:00:00,22,Northward at Haywards,0.354,708,708
10/05/2020 11:00:00,10/05/2020 11:30:00,23,Northward at Haywards,0.343,685,685
10/05/2020 11:30:00,10/05/2020 12:00:00,24,Northward at Haywards,0.343,686,686
10/05/2020 12:00:00,10/05/2020 12:30:00,25,Northward at Haywards,0.355,710,710
10/05/2020 12:30:00,10/05/2020 13:00:00,26,Northward at Haywards,0.363,725,725
10/05/2020 13:00:00,10/05/2020 13:30:00,27,Northward at Haywards,0.337,673,673
10/05/2020 13:30:00,10/05/2020 14:00:00,28,Northward at Haywards,0.340,680,680
10/05/2020 14:00:00,10/05/2020 14:30:00,29,Northward at Haywards,0.345,689,689
10/05/2020 14:30:00,10/05/2020 15:00:00,30,Northward at Haywards,0.327,654,654
10/05/2020 15:00:00,10/05/2020 15:30:00,31,Northward at Haywards,0.343,685,685
10/05/2020 15:30:00,10/05/2020 16:00:00,32,Northward at Haywards,0.344,687,687
10/05/2020 16:00:00,10/05/2020 16:30:00,33,Northward at Haywards,0.344,687,687
10/05/2020 16:30:00,10/05/2020 17:00:00,34,Northward at Haywards,0.362,724,724
10/05/2020 17:00:00,10/05/2020 17:30:00,35,Northward at Haywards,0.382,764,764
10/05/2020 17:30:00,10/05/2020 18:00:00,36,Northward at Haywards,0.430,859,859
10/05/2020 18:00:00,10/05/2020 18:30:00,37,Northward at Haywards,0.413,825,825
10/05/2020 18:30:00,10/05/2020 19:00:00,38,Northward at Haywards,0.402,804,804
10/05/2020 19:00:00,10/05/2020 19:30:00,39,Northward at Haywards,0.402,804,804
10/05/2020 19:30:00,10/05/2020 20:00:00,40,Northward at Haywards,0.389,777,777
10/05/2020 20:00:00,10/05/2020 20:30:00,41,Northward at Haywards,0.385,769,769
10/05/2020 20:30:00,10/05/2020 21:00:00,42,Northward at Haywards,0.363,725,725
10/05/2020 21:00:00,10/05/2020 21:30:00,43,Northward at Haywards,0.343,686,686
10/05/2020 21:30:00,10/05/2020 22:00:00,44,Northward at Haywards,0.324,647,647
10/05/2020 22:00:00,10/05/2020 22:30:00,45,Northward at Haywards,0.308,616,616
10/05/2020 22:30:00,10/05/2020 23:00:00,46,Northward at Haywards,0.262,524,524
10/05/2020 23:00:00,10/05/2020 23:30:00,47,Northward at Haywards,0.243,485,485
10/05/2020 23:30:00,11/05/2020 00:00:00,48,Northward at Haywards,0.223,445,445
11/05/2020 00:00:00,11/05/2020 00:30:00,1,Northward at Haywards,0.209,417,417
11/05/2020 00:30:00,11/05/2020 01:00:00,2,Northward at Haywards,0.188,375,375
11/05/2020 01:00:00,11/05/2020 01:30:00,3,Northward at Haywards,0.179,358,358
11/05/2020 01:30:00,11/05/2020 02:00:00,4,Northward at Haywards,0.152,303,303
11/05/2020 02:00:00,11/05/2020 02:30:00,5,Northward at Haywards,0.157,314,314
11/05/2020 02:30:00,11/05/2020 03:00:00,6,Northward at Haywards,0.146,291,291
11/05/2020 03:00:00,11/05/2020 03:30:00,7,Northward at Haywards,0.142,284,284
11/05/2020 03:30:00,11/05/2020 04:00:00,8,Northward at Haywards,0.143,286,286
11/05/2020 04:00:00,11/05/2020 04:30:00,9,Northward at Haywards,0.149,298,298
11/05/2020 04:30:00,11/05/2020 05:00:00,10,Northward at Haywards,0.152,303,303
11/05/2020 05:00:00,11/05/2020 05:30:00,11,Northward at Haywards,0.183,366,366
11/05/2020 05:30:00,11/05/2020 06:00:00,12,Northward at Haywards,0.220,439,439
11/05/2020 06:00:00,11/05/2020 06:30:00,13,Northward at Haywards,0.251,502,502
11/05/2020 06:30:00,11/05/2020 07:00:00,14,Northward at Haywards,0.282,563,563
11/05/2020 07:00:00,11/05/2020 07:30:00,15,Northward at Haywards,0.332,664,664
11/05/2020 07:30:00,11/05/2020 08:00:00,16,Northward at Haywards,0.358,716,716
11/05/2020 08:00:00,11/05/2020 08:30:00,17,Northward at Haywards,0.416,831,831
11/05/2020 08:30:00,11/05/2020 09:00:00,18,Northward at Haywards,0.431,862,862
11/05/2020 09:00:00,11/05/2020 09:30:00,19,Northward at Haywards,0.423,846,846
11/05/2020 09:30:00,11/05/2020 10:00:00,20,Northward at Haywards,0.424,847,847
11/05/2020 10:00:00,11/05/2020 10:30:00,21,Northward at Haywards,0.415,830,830
11/05/2020 10:30:00,11/05/2020 11:00:00,22,Northward at Haywards,0.371,741,741
11/05/2020 11:00:00,11/05/2020 11:30:00,23,Northward at Haywards,0.407,813,813
11/05/2020 11:30:00,11/05/2020 12:00:00,24,Northward at Haywards,0.398,795,795
11/05/2020 12:00:00,11/05/2020 12:30:00,25,Northward at Haywards,0.399,798,798
11/05/2020 12:30:00,11/05/2020 13:00:00,26,Northward at Haywards,0.409,817,817
11/05/2020 13:00:00,11/05/2020 13:30:00,27,Northward at Haywards,0.420,839,839
11/05/2020 13:30:00,11/05/2020 14:00:00,28,Northward at Haywards,0.411,822,822
11/05/2020 14:00:00,11/05/2020 14:30:00,29,Northward at Haywards,0.410,820,820
11/05/2020 14:30:00,11/05/2020 15:00:00,30,Northward at Haywards,0.397,793,793
11/05/2020 15:00:00,11/05/2020 15:30:00,31,Northward at Haywards,0.382,764,764
11/05/2020 15:30:00,11/05/2020 16:00:00,32,Northward at Haywards,0.397,794,794
11/05/2020 16:00:00,11/05/2020 16:30:00,33,Northward at Haywards,0.439,878,878
11/05/2020 16:30:00,11/05/2020 17:00:00,34,Northward at Haywards,0.424,847,847
11/05/2020 17:00:00,11/05/2020 17:30:00,35,Northward at Haywards,0.441,882,882
11/05/2020 17:30:00,11/05/2020 18:00:00,36,Northward at Haywards,0.411,822,822
11/05/2020 18:00:00,11/05/2020 18:30:00,37,Northward at Haywards,0.458,916,916
11/05/2020 18:30:00,11/05/2020 19:00:00,38,Northward at Haywards,0.437,873,873
11/05/2020 19:00:00,11/05/2020 19:30:00,39,Northward at Haywards,0.446,892,892
11/05/2020 19:30:00,11/05/2020 20:00:00,40,Northward at Haywards,0.434,867,867
11/05/2020 20:00:00,11/05/2020 20:30:00,41,Northward at Haywards,0.438,876,876
11/05/2020 20:30:00,11/05/2020 21:00:00,42,Northward at Haywards,0.426,852,852
11/05/2020 21:00:00,11/05/2020 21:30:00,43,Northward at Haywards,0.416,832,832
11/05/2020 21:30:00,11/05/2020 22:00:00,44,Northward at Haywards,0.406,812,812
11/05/2020 22:00:00,11/05/2020 22:30:00,45,Northward at Haywards,0.337,674,674
11/05/2020 22:30:00,11/05/2020 23:00:00,46,Northward at Haywards,0.312,623,623
11/05/2020 23:00:00,11/05/2020 23:30:00,47,Northward at Haywards,0.263,526,526
11/05/2020 23:30:00,12/05/2020 00:00:00,48,Northward at Haywards,0.232,463,463
12/05/2020 00:00:00,12/05/2020 00:30:00,1,Northward at Haywards,0.247,494,494
12/05/2020 00:30:00,12/05/2020 01:00:00,2,Northward at Haywards,0.239,477,477
12/05/2020 01:00:00,12/05/2020 01:30:00,3,Northward at Haywards,0.221,441,441
12/05/2020 01:30:00,12/05/2020 02:00:00,4,Northward at Haywards,0.231,461,461
12/05/2020 02:00:00,12/05/2020 02:30:00,5,Northward at Haywards,0.204,408,408
12/05/2020 02:30:00,12/05/2020 03:00:00,6,Northward at Haywards,0.199,397,397
12/05/2020 03:00:00,12/05/2020 03:30:00,7,Northward at Haywards,0.192,384,384
12/05/2020 03:30:00,12/05/2020 04:00:00,8,Northward at Haywards,0.193,385,385
12/05/2020 04:00:00,12/05/2020 04:30:00,9,Northward at Haywards,0.195,390,390
12/05/2020 04:30:00,12/05/2020 05:00:00,10,Northward at Haywards,0.199,397,397
12/05/2020 05:00:00,12/05/2020 05:30:00,11,Northward at Haywards,0.218,436,436
12/05/2020 05:30:00,12/05/2020 06:00:00,12,Northward at Haywards,0.236,471,471
12/05/2020 06:00:00,12/05/2020 06:30:00,13,Northward at Haywards,0.283,565,565
12/05/2020 06:30:00,12/05/2020 07:00:00,14,Northward at Haywards,0.343,685,685
12/05/2020 07:00:00,12/05/2020 07:30:00,15,Northward at Haywards,0.390,780,780
12/05/2020 07:30:00,12/05/2020 08:00:00,16,Northward at Haywards,0.370,739,739
12/05/2020 08:00:00,12/05/2020 08:30:00,17,Northward at Haywards,0.407,814,814
12/05/2020 08:30:00,12/05/2020 09:00:00,18,Northward at Haywards,0.394,787,787
12/05/2020 09:00:00,12/05/2020 09:30:00,19,Northward at Haywards,0.391,782,782
12/05/2020 09:30:00,12/05/2020 10:00:00,20,Northward at Haywards,0.371,741,741
12/05/2020 10:00:00,12/05/2020 10:30:00,21,Northward at Haywards,0.361,722,722
12/05/2020 10:30:00,12/05/2020 11:00:00,22,Northward at Haywards,0.363,725,725
12/05/2020 11:00:00,12/05/2020 11:30:00,23,Northward at Haywards,0.362,724,724
12/05/2020 11:30:00,12/05/2020 12:00:00,24,Northward at Haywards,0.368,736,736
12/05/2020 12:00:00,12/05/2020 12:30:00,25,Northward at Haywards,0.343,686,686
12/05/2020 12:30:00,12/05/2020 13:00:00,26,Northward at Haywards,0.350,700,700
12/05/2020 13:00:00,12/05/2020 13:30:00,27,Northward at Haywards,0.406,811,811
12/05/2020 13:30:00,12/05/2020 14:00:00,28,Northward at Haywards,0.436,872,872
12/05/2020 14:00:00,12/05/2020 14:30:00,29,Northward at Haywards,0.412,824,824
12/05/2020 14:30:00,12/05/2020 15:00:00,30,Northward at Haywards,0.399,797,797
12/05/2020 15:00:00,12/05/2020 15:30:00,31,Northward at Haywards,0.395,789,789
12/05/2020 15:30:00,12/05/2020 16:00:00,32,Northward at Haywards,0.414,827,827
12/05/2020 16:00:00,12/05/2020 16:30:00,33,Northward at Haywards,0.419,838,838
12/05/2020 16:30:00,12/05/2020 17:00:00,34,Northward at Haywards,0.404,808,808
12/05/2020 17:00:00,12/05/2020 17:30:00,35,Northward at Haywards,0.402,803,803
12/05/2020 17:30:00,12/05/2020 18:00:00,36,Northward at Haywards,0.390,780,780
12/05/2020 18:00:00,12/05/2020 18:30:00,37,Northward at Haywards,0.392,784,784
12/05/2020 18:30:00,12/05/2020 19:00:00,38,Northward at Haywards,0.414,827,827
12/05/2020 19:00:00,12/05/2020 19:30:00,39,Northward at Haywards,0.423,846,846
12/05/2020 19:30:00,12/05/2020 20:00:00,40,Northward at Haywards,0.438,875,875
12/05/2020 20:00:00,12/05/2020 20:30:00,41,Northward at Haywards,0.430,859,859
12/05/2020 20:30:00,12/05/2020 21:00:00,42,Northward at Haywards,0.401,802,802
12/05/2020 21:00:00,12/05/2020 21:30:00,43,Northward at Haywards,0.418,836,836
12/05/2020 21:30:00,12/05/2020 22:00:00,44,Northward at Haywards,0.412,824,824
12/05/2020 22:00:00,12/05/2020 22:30:00,45,Northward at Haywards,0.351,702,702
12/05/2020 22:30:00,12/05/2020 23:00:00,46,Northward at Haywards,0.305,610,610
12/05/2020 23:00:00,12/05/2020 23:30:00,47,Northward at Haywards,0.280,560,560
12/05/2020 23:30:00,13/05/2020 00:00:00,48,Northward at Haywards,0.267,534,534
13/05/2020 00:00:00,13/05/2020 00:30:00,1,Northward at Haywards,0.213,426,426
13/05/2020 00:30:00,13/05/2020 01:00:00,2,Northward at Haywards,0.200,399,399
13/05/2020 01:00:00,13/05/2020 01:30:00,3,Northward at Haywards,0.185,370,370
13/05/2020 01:30:00,13/05/2020 02:00:00,4,Northward at Haywards,0.156,312,312
13/05/2020 02:00:00,13/05/2020 02:30:00,5,Northward at Haywards,0.166,332,332
13/05/2020 02:30:00,13/05/2020 03:00:00,6,Northward at Haywards,0.173,345,345
13/05/2020 03:00:00,13/05/2020 03:30:00,7,Northward at Haywards,0.167,334,334
13/05/2020 03:30:00,13/05/2020 04:00:00,8,Northward at Haywards,0.174,347,347
13/05/2020 04:00:00,13/05/2020 04:30:00,9,Northward at Haywards,0.183,365,365
13/05/2020 04:30:00,13/05/2020 05:00:00,10,Northward at Haywards,0.168,335,335
13/05/2020 05:00:00,13/05/2020 05:30:00,11,Northward at Haywards,0.199,397,397
13/05/2020 05:30:00,13/05/2020 06:00:00,12,Northward at Haywards,0.221,442,442
13/05/2020 06:00:00,13/05/2020 06:30:00,13,Northward at Haywards,0.258,516,516
13/05/2020 06:30:00,13/05/2020 07:00:00,14,Northward at Haywards,0.308,615,615
13/05/2020 07:00:00,13/05/2020 07:30:00,15,Northward at Haywards,0.345,689,689
13/05/2020 07:30:00,13/05/2020 08:00:00,16,Northward at Haywards,0.378,756,756
13/05/2020 08:00:00,13/05/2020 08:30:00,17,Northward at Haywards,0.375,749,749
13/05/2020 08:30:00,13/05/2020 09:00:00,18,Northward at Haywards,0.359,717,717
13/05/2020 09:00:00,13/05/2020 09:30:00,19,Northward at Haywards,0.380,760,760
13/05/2020 09:30:00,13/05/2020 10:00:00,20,Northward at Haywards,0.392,784,784
13/05/2020 10:00:00,13/05/2020 10:30:00,21,Northward at Haywards,0.342,684,684
13/05/2020 10:30:00,13/05/2020 11:00:00,22,Northward at Haywards,0.351,702,702
13/05/2020 11:00:00,13/05/2020 11:30:00,23,Northward at Haywards,0.404,807,807
13/05/2020 11:30:00,13/05/2020 12:00:00,24,Northward at Haywards,0.383,766,766
13/05/2020 12:00:00,13/05/2020 12:30:00,25,Northward at Haywards,0.383,766,766
13/05/2020 12:30:00,13/05/2020 13:00:00,26,Northward at Haywards,0.391,781,781
13/05/2020 13:00:00,13/05/2020 13:30:00,27,Northward at Haywards,0.401,802,802
13/05/2020 13:30:00,13/05/2020 14:00:00,28,Northward at Haywards,0.397,793,793
13/05/2020 14:00:00,13/05/2020 14:30:00,29,Northward at Haywards,0.423,846,846
13/05/2020 14:30:00,13/05/2020 15:00:00,30,Northward at Haywards,0.398,795,795
13/05/2020 15:00:00,13/05/2020 15:30:00,31,Northward at Haywards,0.400,799,799
13/05/2020 15:30:00,13/05/2020 16:00:00,32,Northward at Haywards,0.397,793,793
13/05/2020 16:00:00,13/05/2020 16:30:00,33,Northward at Haywards,0.424,848,848
13/05/2020 16:30:00,13/05/2020 17:00:00,34,Northward at Haywards,0.422,844,844
13/05/2020 17:00:00,13/05/2020 17:30:00,35,Northward at Haywards,0.432,863,863
13/05/2020 17:30:00,13/05/2020 18:00:00,36,Northward at Haywards,0.401,802,802
13/05/2020 18:00:00,13/05/2020 18:30:00,37,Northward at Haywards,0.403,805,805
13/05/2020 18:30:00,13/05/2020 19:00:00,38,Northward at Haywards,0.420,839,839
13/05/2020 19:00:00,13/05/2020 19:30:00,39,Northward at Haywards,0.419,838,838
13/05/2020 19:30:00,13/05/2020 20:00:00,40,Northward at Haywards,0.434,867,867
13/05/2020 20:00:00,13/05/2020 20:30:00,41,Northward at Haywards,0.442,883,883
13/05/2020 20:30:00,13/05/2020 21:00:00,42,Northward at Haywards,0.426,852,852
13/05/2020 21:00:00,13/05/2020 21:30:00,43,Northward at Haywards,0.432,864,864
13/05/2020 21:30:00,13/05/2020 22:00:00,44,Northward at Haywards,0.381,761,761
13/05/2020 22:00:00,13/05/2020 22:30:00,45,Northward at Haywards,0.343,686,686
13/05/2020 22:30:00,13/05/2020 23:00:00,46,Northward at Haywards,0.306,612,612
13/05/2020 23:00:00,13/05/2020 23:30:00,47,Northward at Haywards,0.288,576,576
13/05/2020 23:30:00,14/05/2020 00:00:00,48,Northward at Haywards,0.250,500,500
14/05/2020 00:00:00,14/05/2020 00:30:00,1,Northward at Haywards,0.238,475,475
14/05/2020 00:30:00,14/05/2020 01:00:00,2,Northward at Haywards,0.198,395,395
14/05/2020 01:00:00,14/05/2020 01:30:00,3,Northward at Haywards,0.203,406,406
14/05/2020 01:30:00,14/05/2020 02:00:00,4,Northward at Haywards,0.182,364,364
14/05/2020 02:00:00,14/05/2020 02:30:00,5,Northward at Haywards,0.188,376,376
14/05/2020 02:30:00,14/05/2020 03:00:00,6,Northward at Haywards,0.180,359,359
14/05/2020 03:00:00,14/05/2020 03:30:00,7,Northward at Haywards,0.187,373,373
14/05/2020 03:30:00,14/05/2020 04:00:00,8,Northward at Haywards,0.183,365,365
14/05/2020 04:00:00,14/05/2020 04:30:00,9,Northward at Haywards,0.181,361,361
14/05/2020 04:30:00,14/05/2020 05:00:00,10,Northward at Haywards,0.196,391,391
14/05/2020 05:00:00,14/05/2020 05:30:00,11,Northward at Haywards,0.230,460,460
14/05/2020 05:30:00,14/05/2020 06:00:00,12,Northward at Haywards,0.279,557,557
14/05/2020 06:00:00,14/05/2020 06:30:00,13,Northward at Haywards,0.306,611,611
14/05/2020 06:30:00,14/05/2020 07:00:00,14,Northward at Haywards,0.341,681,681
14/05/2020 07:00:00,14/05/2020 07:30:00,15,Northward at Haywards,0.381,762,762
14/05/2020 07:30:00,14/05/2020 08:00:00,16,Northward at Haywards,0.420,840,840
14/05/2020 08:00:00,14/05/2020 08:30:00,17,Northward at Haywards,0.407,813,813
14/05/2020 08:30:00,14/05/2020 09:00:00,18,Northward at Haywards,0.405,809,809
14/05/2020 09:00:00,14/05/2020 09:30:00,19,Northward at Haywards,0.410,819,819
14/05/2020 09:30:00,14/05/2020 10:00:00,20,Northward at Haywards,0.419,837,837
14/05/2020 10:00:00,14/05/2020 10:30:00,21,Northward at Haywards,0.423,845,845
14/05/2020 10:30:00,14/05/2020 11:00:00,22,Northward at Haywards,0.396,792,792
14/05/2020 11:00:00,14/05/2020 11:30:00,23,Northward at Haywards,0.419,838,838
14/05/2020 11:30:00,14/05/2020 12:00:00,24,Northward at Haywards,0.433,866,866
14/05/2020 12:00:00,14/05/2020 12:30:00,25,Northward at Haywards,0.443,885,885
14/05/2020 12:30:00,14/05/2020 13:00:00,26,Northward at Haywards,0.479,957,957
14/05/2020 13:00:00,14/05/2020 13:30:00,27,Northward at Haywards,0.438,875,875
14/05/2020 13:30:00,14/05/2020 14:00:00,28,Northward at Haywards,0.443,885,885
14/05/2020 14:00:00,14/05/2020 14:30:00,29,Northward at Haywards,0.452,903,903
14/05/2020 14:30:00,14/05/2020 15:00:00,30,Northward at Haywards,0.446,892,892
14/05/2020 15:00:00,14/05/2020 15:30:00,31,Northward at Haywards,0.446,892,892
14/05/2020 15:30:00,14/05/2020 16:00:00,32,Northward at Haywards,0.436,871,871
14/05/2020 16:00:00,14/05/2020 16:30:00,33,Northward at Haywards,0.424,847,847
14/05/2020 16:30:00,14/05/2020 17:00:00,34,Northward at Haywards,0.439,878,878
14/05/2020 17:00:00,14/05/2020 17:30:00,35,Northward at Haywards,0.455,910,910
14/05/2020 17:30:00,14/05/2020 18:00:00,36,Northward at Haywards,0.466,931,931
14/05/2020 18:00:00,14/05/2020 18:30:00,37,Northward at Haywards,0.465,929,929
14/05/2020 18:30:00,14/05/2020 19:00:00,38,Northward at Haywards,0.457,914,914
14/05/2020 19:00:00,14/05/2020 19:30:00,39,Northward at Haywards,0.440,879,879
14/05/2020 19:30:00,14/05/2020 20:00:00,40,Northward at Haywards,0.453,906,906
14/05/2020 20:00:00,14/05/2020 20:30:00,41,Northward at Haywards,0.430,859,859
14/05/2020 20:30:00,14/05/2020 21:00:00,42,Northward at Haywards,0.416,832,832
14/05/2020 21:00:00,14/05/2020 21:30:00,43,Northward at Haywards,0.400,800,800
14/05/2020 21:30:00,14/05/2020 22:00:00,44,Northward at Haywards,0.397,794,794
14/05/2020 22:00:00,14/05/2020 22:30:00,45,Northward at Haywards,0.330,659,659
14/05/2020 22:30:00,14/05/2020 23:00:00,46,Northward at Haywards,0.313,626,626
14/05/2020 23:00:00,14/05/2020 23:30:00,47,Northward at Haywards,0.286,572,572
14/05/2020 23:30:00,15/05/2020 00:00:00,48,Northward at Haywards,0.210,419,419
15/05/2020 00:00:00,15/05/2020 00:30:00,1,Northward at Haywards,0.212,424,424
15/05/2020 00:30:00,15/05/2020 01:00:00,2,Northward at Haywards,0.191,381,381
15/05/2020 01:00:00,15/05/2020 01:30:00,3,Northward at Haywards,0.196,392,392
15/05/2020 01:30:00,15/05/2020 02:00:00,4,Northward at Haywards,0.188,376,376
15/05/2020 02:00:00,15/05/2020 02:30:00,5,Northward at Haywards,0.184,368,368
15/05/2020 02:30:00,15/05/2020 03:00:00,6,Northward at Haywards,0.190,379,379
15/05/2020 03:00:00,15/05/2020 03:30:00,7,Northward at Haywards,0.193,386,386
15/05/2020 03:30:00,15/05/2020 04:00:00,8,Northward at Haywards,0.201,401,401
15/05/2020 04:00:00,15/05/2020 04:30:00,9,Northward at Haywards,0.206,411,411
15/05/2020 04:30:00,15/05/2020 05:00:00,10,Northward at Haywards,0.219,437,437
15/05/2020 05:00:00,15/05/2020 05:30:00,11,Northward at Haywards,0.271,541,541
15/05/2020 05:30:00,15/05/2020 06:00:00,12,Northward at Haywards,0.316,632,632
15/05/2020 06:00:00,15/05/2020 06:30:00,13,Northward at Haywards,0.350,700,700
15/05/2020 06:30:00,15/05/2020 07:00:00,14,Northward at Haywards,0.377,753,753
15/05/2020 07:00:00,15/05/2020 07:30:00,15,Northward at Haywards,0.416,831,831
15/05/2020 07:30:00,15/05/2020 08:00:00,16,Northward at Haywards,0.391,782,782
15/05/2020 08:00:00,15/05/2020 08:30:00,17,Northward at Haywards,0.362,724,724
15/05/2020 08:30:00,15/05/2020 09:00:00,18,Northward at Haywards,0.375,750,750
15/05/2020 09:00:00,15/05/2020 09:30:00,19,Northward at Haywards,0.377,754,754
15/05/2020 09:30:00,15/05/2020 10:00:00,20,Northward at Haywards,0.395,790,790
15/05/2020 10:00:00,15/05/2020 10:30:00,21,Northward at Haywards,0.415,830,830
15/05/2020 10:30:00,15/05/2020 11:00:00,22,Northward at Haywards,0.415,829,829
15/05/2020 11:00:00,15/05/2020 11:30:00,23,Northward at Haywards,0.446,892,892
15/05/2020 11:30:00,15/05/2020 12:00:00,24,Northward at Haywards,0.436,871,871
15/05/2020 12:00:00,15/05/2020 12:30:00,25,Northward at Haywards,0.439,878,878
15/05/2020 12:30:00,15/05/2020 13:00:00,26,Northward at Haywards,0.438,875,875
15/05/2020 13:00:00,15/05/2020 13:30:00,27,Northward at Haywards,0.432,864,864
15/05/2020 13:30:00,15/05/2020 14:00:00,28,Northward at Haywards,0.429,858,858
15/05/2020 14:00:00,15/05/2020 14:30:00,29,Northward at Haywards,0.452,904,904
15/05/2020 14:30:00,15/05/2020 15:00:00,30,Northward at Haywards,0.427,854,854
15/05/2020 15:00:00,15/05/2020 15:30:00,31,Northward at Haywards,0.429,857,857
15/05/2020 15:30:00,15/05/2020 16:00:00,32,Northward at Haywards,0.425,849,849
15/05/2020 16:00:00,15/05/2020 16:30:00,33,Northward at Haywards,0.438,875,875
15/05/2020 16:30:00,15/05/2020 17:00:00,34,Northward at Haywards,0.424,847,847
15/05/2020 17:00:00,15/05/2020 17:30:00,35,Northward at Haywards,0.421,842,842
15/05/2020 17:30:00,15/05/2020 18:00:00,36,Northward at Haywards,0.423,845,845
15/05/2020 18:00:00,15/05/2020 18:30:00,37,Northward at Haywards,0.421,841,841
15/05/2020 18:30:00,15/05/2020 19:00:00,38,Northward at Haywards,0.425,849,849
15/05/2020 19:00:00,15/05/2020 19:30:00,39,Northward at Haywards,0.443,885,885
15/05/2020 19:30:00,15/05/2020 20:00:00,40,Northward at Haywards,0.404,808,808
15/05/2020 20:00:00,15/05/2020 20:30:00,41,Northward at Haywards,0.398,796,796
15/05/2020 20:30:00,15/05/2020 21:00:00,42,Northward at Haywards,0.381,761,761
15/05/2020 21:00:00,15/05/2020 21:30:00,43,Northward at Haywards,0.349,697,697
15/05/2020 21:30:00,15/05/2020 22:00:00,44,Northward at Haywards,0.373,745,745
15/05/2020 22:00:00,15/05/2020 22:30:00,45,Northward at Haywards,0.307,613,613
15/05/2020 22:30:00,15/05/2020 23:00:00,46,Northward at Haywards,0.302,604,604
15/05/2020 23:00:00,15/05/2020 23:30:00,47,Northward at Haywards,0.276,552,552
15/05/2020 23:30:00,16/05/2020 00:00:00,48,Northward at Haywards,0.232,463,463
16/05/2020 00:00:00,16/05/2020 00:30:00,1,Northward at Haywards,0.161,321,321
16/05/2020 00:30:00,16/05/2020 01:00:00,2,Northward at Haywards,0.141,281,281
16/05/2020 01:00:00,16/05/2020 01:30:00,3,Northward at Haywards,0.130,259,259
16/05/2020 01:30:00,16/05/2020 02:00:00,4,Northward at Haywards,0.130,260,260
16/05/2020 02:00:00,16/05/2020 02:30:00,5,Northward at Haywards,0.132,263,263
16/05/2020 02:30:00,16/05/2020 03:00:00,6,Northward at Haywards,0.132,264,264
16/05/2020 03:00:00,16/05/2020 03:30:00,7,Northward at Haywards,0.135,270,270
16/05/2020 03:30:00,16/05/2020 04:00:00,8,Northward at Haywards,0.132,263,263